Voltar ao catálogo

STARLINK-31078

AtivoComunicaçõesVLEO
NORAD 58638·PAYLOAD·🇺🇸 United States

Lançado Dec 23, 2023 de Cape Canaveral Space Force Station

Loading…

Próximas Passagens (próximas 24 horas)

TLE

AtualizadoSource: CelesTrak SupGP

Época: Sep 15, 2026, 03:15 UTC

1 58638C 23203W   26258.13590278 -.00023119  00000+0 -83723-3 0  2589
2 58638  43.0025  77.3999 0001404 269.1252  47.8037 15.27594849    10

Acompanhe STARLINK-31078 em tempo real com AllMySat

Download on the App Store